2001 RA12 

Epoch 2001 Sep. 8.0 TT = JDT 2452160.5                  Nakano

M  16.68984              (2000.0)            P               Q

n   0.33471286     Peri.  325.99260     +0.15167177     +0.96359613

a   2.0544131      Node   311.65701     -0.82860766     +0.00250693

e   0.5509624      Incl.   17.13925     -0.53889240     +0.26735034

P   2.94           H   18.2           G   0.15           U   *

Residuals in seconds of arc 

010910 704  0.4-  0.3+    010911 104  0.1+  0.1-    010912 670  0.6+  0.3-  

010910 704  0.4-  0.6+    010911 104  0.7-  0.4-    010912 587  0.3-  0.7+  

010910 704  0.2-  0.5+    010911 104  0.5-  0.4-    010912 104  1.4-  1.8+  

010910 704  0.2-  0.8+    010912 704  0.2-  0.2-    010912 587  0.1-  0.4+  

010911 704  1.0+  0.5-    010912 704  0.1-  0.2+    010912 104  0.8+  0.1+  

010911 704  0.9+  0.6-    010912 704  0.2+  0.2-    010915 157  1.8+  0.5-  

010911 918  0.4+  0.7-    010912 704  0.1-  0.3-    010915 157  0.7+  0.0   

010911 704  1.5+  0.0     010912 704  1.3-  1.1-    010916 670  0.0   0.4-  

010911 918  0.2+  0.7-    010912 704  0.7-  0.7-    010916 670  0.3-  0.2-  

010911 649  0.3-  0.1+    010912 704  0.8-  0.2+    010918 046  0.1+  0.3+  

010911 918  0.2-  0.3-    010912 670  0.4+  0.5+    010918 046  0.8-  0.0   

010911 649  0.5-  0.2-    010912 658  0.4+  0.0     010918 046  0.4-  0.1-  

010911 649  0.1-  0.1-    010912 658  0.6+  0.0     010918 046  0.1-  0.3-  

010911 704  0.3-  0.2+    010912 704  0.6-  0.5-    010920 402  0.3-  0.1+  

010911 918  0.7+  0.3-    010912 704  0.7-  0.4+    010920 402  1.1+  0.6+  

010911 704  0.9+  0.3-    010912 658  0.0   0.0     010920 402  0.3-  0.1-  

010911 118  0.1+  0.2-    010912 642  1.9+  0.6+    010920 360  0.0   0.0   

010911 118  0.4-  0.8+    010912 642  0.1-  0.1+    010920 360  0.0   0.3-  

010911 118  0.5-  0.0     010912 642  0.2-  0.2+    010920 360  0.1-  0.0   

010911 118  0.3+  0.0     010912 642  0.0   0.9+                            

010911 118  0.6+  1.1-    010912 642  1.7-  0.5+                            

  

NAKANO

         **** Don't distribute anyone except personal use only ****

                (C) Copyright 2001 OAA/ComputingSection

write mail from CFAD0::NAKANO on 2001-09-22 23:09:19(JST).

 



–ß‚è‚Ü‚·B